OBJECT E, 51828

Orbit data source: Space-Track

You're viewing an Uncataloged Satellite

Recently launched and/or uncataloged satellites may have evolving metadata. Metadata may include but not limited to: Owner, Maufacturer, Bus, Motor, and Mission.

OBJECT E, 51828 is a satellite owned by Sanya RI (CN) in SSO that was launched on Sun, 27 Feb 2022 UTC via a CHANG ZHENG 8 launch vehicle from the Wenchang Satellite Launch Center (WSC). Unknown objects in Earth's orbit typically refer to objects detected orbiting the Earth but have not yet been identified or cataloged. These objects could be anything from previously untracked satellites, spent rocket stages, debris from satellite collisions, or even natural meteoroids temporarily captured by Earth's gravity.

Loading next visibility...
Identifier
51828, 2022-019E
Orbit
SSO
Last TLE update
6 hours ago
Origin
Flag of CNSANYZ (CN / PRC)
Manufacturer
Weina
Mission
Civil Imaging
Bus & Motor
MN50?, Unknown motor
Mass
62 kg wet, 62 kg dry
Launch date (UTC)
2022-02-27 (3 years ago)
Launch vehicle
CHANG ZHENG 8
Launch site
Wenchang Satellite Launch Center (WSC)
Object type
Unknown
Shape & HBR
Box + 2 Pan, 2 m
Radar Cross Section
1.775 m², Medium (>0.1 m² and < 1m²)

Expand to show TLE details & history

TLE from 6 hours ago
0 OBJECT E
1 51828U 22019E   25182.49704799  .00009746  00000-0  22251-3 0  9996
2 51828  97.3970 265.8091 0007353 314.5519  45.5127 15.43058092185654
Epoch: 2025-07-01T11:55Z
TLE epoch observation values (Epoch: 2025-07-01T11:55:44.946Z)
Latitude
-0.00007°
Longitude
167.08018°
Altitude
436.701 km
Speed
7.652 km/s
True Right ascension
17h 43m 14s
True Declination
0° 00' 00"
Sunlit
Object was in full shadow at epoch
Visualization orbit readout
Latitude
-17.25245°
Longitude
169.63822°
Altitude
439.614 km
Speed
7.65 km/s
Apparent Right ascension
17h 49m 37s
Apparent Declination
-28° 03' 21"
Sunlit
Object is in full shadow
Visualization observer readout
Local Sidereal Time
05:44:29
Azimuth
354.518° N
Elevation
-78.093°
Doppler factor
1
Orbital elements
Apogee altitude
439.034 km
Perigee altitude
429.016 km
Semi-major axis
6,812.162 km
Eccentricity
0.00074
Inclination
97.397°
RAAN
265.8091°
Arg. of periapsis
314.5519°
True anomaly
Unknown
Mean anomaly
45.5127°
Eccentric anomaly
Unknown
Mean motion
3.86025 °/min
Orbital period
93.26 mins
BSTAR
0.00022251
Loading maneuver chart data...
Loading SW <> Apogee altitude chart data...
Loading historical data...
Loading historical data...
Loading historical data...
Loading historical data...
Loading historical data...
Loading historical data...
Loading historical data...

OBJECT E Visibility forecast

Observer location: undefined°, undefined°

Span
Click to sort rows by Start time (UTC) header in descending order
Start Az.
Max El. time (UTC)
Max El. Az.
Max El.
End time (UTC)
End Az.
5 mins2025-07-01 18:42:47.632Z357.737° N2025-07-01 18:45:47.632Z252.656° W35.557°2025-07-01 18:47:47.632Z212.336° SW
4 mins2025-07-02 05:11:47.632Z129.825° SE2025-07-02 05:13:47.632Z68.74° E30.019°2025-07-02 05:15:47.632Z14.344° NNE
|